• în România
  • Lista ţărilor
  • Pe 7 zile
  • Temperatura apei
  • Hartă satelitară
  • Meteo pe hartă
  • Widget-uri
  • user-avatar
    Intrare

    Meteo pe oră la Korzovo

    Astăzi, 25 Septembrie, Marţi

    Timp Temperatura Precipitaţii Vânt Presiune Umiditate
    00:00 +4°C° 2.1 mm 6 m/s 725 mmHg 94%
    01:00 +4°C° 2.1 mm 6 m/s 725 mmHg 94%
    02:00 +4°C° 2.1 mm 6 m/s 725 mmHg 93%
    03:00 +5°C° 1.1 mm 7 m/s 726 mmHg 92%
    04:00 +5°C° 1.1 mm 7 m/s 727 mmHg 91%
    05:00 +5°C° 1.1 mm 7 m/s 727 mmHg 90%
    06:00 +5°C° 0.5 mm 7 m/s 728 mmHg 89%
    07:00 +5°C° 0.5 mm 7 m/s 729 mmHg 87%
    08:00 +4°C° 0.5 mm 7 m/s 730 mmHg 86%
    09:00 +5°C° 0.2 mm 7 m/s 731 mmHg 83%
    10:00 +5°C° 0.2 mm 7 m/s 732 mmHg 80%
    11:00 +6°C° 0.2 mm 7 m/s 733 mmHg 77%
    12:00 +6°C° 0.1 mm 7 m/s 733 mmHg 75%
    13:00 +6°C° 0.1 mm 7 m/s 734 mmHg 72%
    14:00 +8°C° 0.1 mm 7 m/s 735 mmHg 70%
    15:00 +7°C° 0 mm 6 m/s 736 mmHg 70%
    16:00 +7°C° 0 mm 5 m/s 736 mmHg 71%
    17:00 +6°C° 0 mm 5 m/s 737 mmHg 72%
    18:00 +6°C° 0 mm 5 m/s 738 mmHg 74%
    19:00 +5°C° 0 mm 5 m/s 739 mmHg 76%
    20:00 +3°C° 0 mm 5 m/s 739 mmHg 78%
    21:00 +4°C° 0 mm 4 m/s 740 mmHg 79%
    22:00 +4°C° 0 mm 4 m/s 741 mmHg 79%
    23:00 +3°C° 0 mm 4 m/s 742 mmHg 80%

    Mâine, 26 Septembrie, Miercuri

    Timp Temperatura Precipitaţii Vânt Presiune Umiditate
    00:00 +3°C° 0 mm 4 m/s 742 mmHg 79%
    01:00 +3°C° 0 mm 4 m/s 743 mmHg 79%
    02:00 +1°C° 0 mm 4 m/s 743 mmHg 79%
    03:00 +1°C° 0 mm 4 m/s 744 mmHg 78%
    04:00 +1°C° 0 mm 4 m/s 744 mmHg 78%
    05:00 +1°C° 0 mm 3 m/s 745 mmHg 77%
    06:00 +2°C° 0 mm 3 m/s 745 mmHg 75%
    07:00 +3°C° 0 mm 4 m/s 745 mmHg 73%
    08:00 +3°C° 0 mm 4 m/s 746 mmHg 71%
    09:00 +5°C° 0 mm 4 m/s 746 mmHg 68%
    10:00 +7°C° 0 mm 4 m/s 746 mmHg 65%
    11:00 +10°C° 0 mm 4 m/s 746 mmHg 62%
    12:00 +10°C° 0 mm 4 m/s 745 mmHg 59%
    13:00 +11°C° 0 mm 4 m/s 745 mmHg 56%
    14:00 +10°C° 0 mm 5 m/s 744 mmHg 53%
    15:00 +10°C° 0 mm 4 m/s 743 mmHg 56%
    16:00 +8°C° 0 mm 4 m/s 743 mmHg 59%
    17:00 +7°C° 0 mm 4 m/s 742 mmHg 63%
    18:00 +7°C° 0.1 mm 5 m/s 741 mmHg 66%
    19:00 +7°C° 0.1 mm 5 m/s 740 mmHg 70%
    20:00 +5°C° 0.1 mm 6 m/s 740 mmHg 73%
    21:00 +5°C° 1.2 mm 7 m/s 738 mmHg 78%
    22:00 +5°C° 1.2 mm 7 m/s 737 mmHg 83%
    23:00 +4°C° 1.2 mm 8 m/s 735 mmHg 87%

    Poimâine, 27 Septembrie, Joi

    Timp Temperatura Precipitaţii Vânt Presiune Umiditate
    00:00 +5°C° 1.2 mm 8 m/s 734 mmHg 88%
    01:00 +5°C° 1.2 mm 8 m/s 733 mmHg 88%
    02:00 +5°C° 1.2 mm 7 m/s 732 mmHg 89%
    03:00 +6°C° 1.4 mm 7 m/s 732 mmHg 89%
    04:00 +7°C° 1.4 mm 6 m/s 731 mmHg 90%
    05:00 +7°C° 1.4 mm 6 m/s 731 mmHg 90%
    06:00 +7°C° 0.1 mm 5 m/s 731 mmHg 88%
    07:00 +8°C° 0.1 mm 5 m/s 732 mmHg 85%
    08:00 +8°C° 0.1 mm 5 m/s 732 mmHg 82%
    09:00 +8°C° 0.1 mm 5 m/s 732 mmHg 77%
    10:00 +9°C° 0.1 mm 6 m/s 732 mmHg 71%
    11:00 +9°C° 0.1 mm 6 m/s 733 mmHg 66%
    12:00 +9°C° 0.2 mm 6 m/s 733 mmHg 66%
    13:00 +9°C° 0.2 mm 7 m/s 733 mmHg 66%
    14:00 +8°C° 0.2 mm 7 m/s 734 mmHg 65%
    15:00 +8°C° 0 mm 6 m/s 734 mmHg 68%
    16:00 +7°C° 0 mm 5 m/s 734 mmHg 70%
    17:00 +7°C° 0 mm 4 m/s 735 mmHg 72%
    18:00 +6°C° 0 mm 4 m/s 735 mmHg 73%
    19:00 +6°C° 0 mm 4 m/s 736 mmHg 75%
    20:00 +5°C° 0 mm 4 m/s 736 mmHg 76%
    21:00 +5°C° 0 mm 4 m/s 737 mmHg 77%
    22:00 +5°C° 0 mm 4 m/s 737 mmHg 78%
    23:00 +4°C° 0 mm 4 m/s 737 mmHg 78%

    28 Septembrie, Vineri

    Timp Temperatura Precipitaţii Vânt Presiune Umiditate
    00:00 +4°C° 0 mm 3 m/s 737 mmHg 81%
    01:00 +3°C° 0 mm 3 m/s 737 mmHg 83%
    02:00 +3°C° 0 mm 3 m/s 737 mmHg 85%
    03:00 +3°C° 0 mm 3 m/s 736 mmHg 83%
    04:00 +4°C° 0 mm 3 m/s 735 mmHg 82%
    05:00 +4°C° 0 mm 3 m/s 735 mmHg 80%
    06:00 +5°C° 0.7 mm 5 m/s 733 mmHg 83%
    07:00 +7°C° 0.7 mm 6 m/s 732 mmHg 85%
    08:00 +8°C° 0.7 mm 7 m/s 730 mmHg 88%
    09:00 +9°C° 0.8 mm 7 m/s 730 mmHg 87%
    10:00 +10°C° 0.8 mm 7 m/s 729 mmHg 87%
    11:00 +11°C° 0.8 mm 8 m/s 728 mmHg 86%
    12:00 +11°C° 1 mm 8 m/s 728 mmHg 85%
    13:00 +11°C° 1 mm 7 m/s 728 mmHg 83%
    14:00 +11°C° 1 mm 7 m/s 728 mmHg 82%
    15:00 +9°C° 0.2 mm 6 m/s 729 mmHg 83%
    16:00 +8°C° 0.2 mm 6 m/s 730 mmHg 84%
    17:00 +7°C° 0.2 mm 5 m/s 731 mmHg 85%
    18:00 +6°C° 0.1 mm 5 m/s 733 mmHg 85%
    19:00 +3°C° 0.1 mm 5 m/s 734 mmHg 85%
    20:00 +3°C° 0.1 mm 4 m/s 736 mmHg 86%
    21:00 +3°C° 0 mm 3 m/s 736 mmHg 88%
    22:00 +2°C° 0 mm 3 m/s 737 mmHg 90%
    23:00 +2°C° 0 mm 2 m/s 738 mmHg 92%

    29 Septembrie, Sâmbătă

    Timp Temperatura Precipitaţii Vânt Presiune Umiditate
    00:00 +2°C° 0 mm 2 m/s 739 mmHg 93%
    01:00 +1°C° 0 mm 2 m/s 739 mmHg 93%
    02:00 +1°C° 0 mm 2 m/s 740 mmHg 94%
    03:00 +1°C° 0 mm 2 m/s 740 mmHg 95%
    04:00 +1°C° 0 mm 2 m/s 741 mmHg 95%
    05:00 +2°C° 0 mm 1 m/s 741 mmHg 96%
    06:00 +3°C° 0.1 mm 1 m/s 741 mmHg 93%
    07:00 +4°C° 0.1 mm 1 m/s 742 mmHg 90%
    08:00 +5°C° 0.1 mm 1 m/s 742 mmHg 87%
    09:00 +5°C° 0.3 mm 1 m/s 743 mmHg 84%
    10:00 +5°C° 0.3 mm 1 m/s 743 mmHg 81%
    11:00 +6°C° 0.3 mm 1 m/s 744 mmHg 79%
    12:00 +6°C° 0.1 mm 1 m/s 744 mmHg 75%
    13:00 +7°C° 0.1 mm 1 m/s 744 mmHg 72%
    14:00 +6°C° 0.1 mm 2 m/s 744 mmHg 68%
    15:00 +5°C° 0 mm 2 m/s 745 mmHg 71%
    16:00 +6°C° 0 mm 1 m/s 745 mmHg 74%
    17:00 +5°C° 0 mm 1 m/s 746 mmHg 77%
    18:00 +4°C° 0 mm 1 m/s 746 mmHg 78%
    19:00 +3°C° 0 mm 1 m/s 747 mmHg 80%
    20:00 +2°C° 0 mm 1 m/s 747 mmHg 82%
    21:00 +2°C° 0 mm 1 m/s 748 mmHg 82%
    22:00 +1°C° 0 mm 1 m/s 748 mmHg 83%
    23:00 +1°C° 0 mm 1 m/s 748 mmHg 83%

    30 Septembrie, Duminică

    Timp Temperatura Precipitaţii Vânt Presiune Umiditate
    00:00 +1°C° 0 mm 1 m/s 749 mmHg 84%
    01:00 0°C° 0 mm 1 m/s 749 mmHg 85%
    02:00 0°C° 0 mm 1 m/s 749 mmHg 85%
    03:00 0°C° 0 mm 1 m/s 749 mmHg 86%
    04:00 0°C° 0 mm 1 m/s 749 mmHg 87%
    05:00 0°C° 0 mm 1 m/s 749 mmHg 87%
    06:00 -1°C° 0 mm 2 m/s 749 mmHg 84%
    07:00 +2°C° 0 mm 2 m/s 749 mmHg 80%
    08:00 +3°C° 0 mm 2 m/s 750 mmHg 77%
    09:00 +3°C° 0 mm 3 m/s 749 mmHg 71%
    10:00 +5°C° 0 mm 3 m/s 749 mmHg 65%
    11:00 +8°C° 0 mm 3 m/s 749 mmHg 60%
    12:00 +7°C° 0 mm 4 m/s 749 mmHg 59%
    13:00 +7°C° 0 mm 4 m/s 748 mmHg 57%
    14:00 +8°C° 0 mm 4 m/s 748 mmHg 56%
    15:00 +8°C° 0 mm 3 m/s 748 mmHg 62%
    16:00 +5°C° 0 mm 3 m/s 747 mmHg 68%
    17:00 +5°C° 0 mm 2 m/s 747 mmHg 74%
    18:00 +4°C° 0 mm 3 m/s 747 mmHg 75%
    19:00 +4°C° 0 mm 3 m/s 747 mmHg 76%
    20:00 +3°C° 0 mm 3 m/s 746 mmHg 77%
    21:00 +3°C° 0 mm 3 m/s 746 mmHg 76%
    22:00 +4°C° 0 mm 4 m/s 746 mmHg 76%
    23:00 +4°C° 0 mm 4 m/s 746 mmHg 75%
    Arată mai mult